This demonstration page uses our WeatherBlox Daily Observations layout. Learn more.

Left ArrowRight Arrow

Hourly Observations for March 24, 2022

Temp ( °F °C ) Dew Point ( °F °C ) Humidity (%) Winds ( mph kmh ) Pressure ( in mb ) Visibility ( mi km ) Precip ( " mm )
12:12 am 00:12 Cloudy 70 21.1 63 17.2 79 79 S 12 19 29.91 1013 10 16 0.00 0.00
12:59 am 00:59 Cloudy 71 21.7 63 17.2 76 76 S 16 26 29.91 1013 9 14 0.00 0.00
1:59 am 01:59 Cloudy 70 21.1 64 17.8 82 82 S 10 17 29.91 1013 9 14 0.00 0.00
2:06 am 02:06 Cloudy 71 21.7 64 17.8 79 79 S 14 22 29.91 1013 9 14 0.00 0.00
2:59 am 02:59 Cloudy 71 21.7 65 18.3 81 81 S 10 17 29.90 1013 9 14 0.00 0.00
3:59 am 03:59 Mostly Cloudy 70 21.1 65 18.3 84 84 S 9 15 29.88 1012 8 13 0.00 0.00
4:59 am 04:59 Cloudy 70 21.1 65 18.3 84 84 S 12 19 29.87 1012 8 13 0.00 0.00
5:33 am 05:33 Cloudy 70 21.1 65 18.3 84 84 S 12 19 29.87 1011 8 13 0.00 0.00
5:59 am 05:59 Cloudy 70 21.1 65 18.3 84 84 S 10 17 29.87 1011 8 13 0.00 0.00
6:59 am 06:59 Cloudy with Light Rain 70 21.1 66 18.9 87 87 S 13 20 29.84 1011 8 13 0.00 0.00
7:03 am 07:03 Cloudy 70 21.1 66 18.9 87 87 S 14 22 29.85 1011 8 13 0.00 0.00
7:59 am 07:59 Cloudy 71 21.7 66 18.9 84 84 S 12 19 29.87 1011 8 13 0.00 0.00
8:59 am 08:59 Cloudy 71 21.7 66 18.9 84 84 S 12 19 29.88 1012 8 13 0.00 0.00
9:59 am 09:59 Cloudy 71 21.7 66 18.9 84 84 S 7 11 29.89 1012 10 16 0.01 0.25
10:59 am 10:59 Cloudy with Light Rain 70 21.1 67 19.4 90 90 S 6 9 29.88 1012 3 5 0.05 1.27
11:59 am 11:59 Cloudy with Light Rain 70 21.1 66 18.9 87 87 W 6 9 29.88 1012 4 6 0.05 1.27
12:59 pm 12:59 Cloudy with Rain 70 21.1 67 19.4 90 90 S 6 9 29.86 1011 4 6 0.09 2.29
1:06 pm 13:06 Cloudy with Light Rain 70 21.1 67 19.4 90 90 S 7 11 29.87 1011 3 5 0.00 0.00
1:59 pm 13:59 Cloudy with Light Rain 69 20.6 66 18.9 90 90 SSW 10 17 29.84 1011 4 6 0.13 3.30
2:11 pm 14:11 Mostly Cloudy 70 21.1 66 18.9 87 87 SSW 9 15 29.83 1010 10 16 0.00 0.00
2:59 pm 14:59 Cloudy 71 21.7 64 17.8 79 79 S 10 17 29.81 1010 10 16 0.01 0.25
3:59 pm 15:59 Cloudy 71 21.7 63 17.2 76 76 SSW 8 13 29.79 1009 10 16 0.00 0.00
4:59 pm 16:59 Cloudy 70 21.1 63 17.2 79 79 S 9 15 29.76 1008 10 16 0.00 0.00
5:59 pm 17:59 Cloudy 70 21.1 63 17.2 79 79 S 12 19 29.75 1008 10 16 0.00 0.00
6:59 pm 18:59 Cloudy 70 21.1 63 17.2 79 79 SSW 6 9 29.73 1007 10 16 0.00 0.00
7:06 pm 19:06 Mostly Cloudy 70 21.1 63 17.2 79 79 S 6 9 29.74 1007 10 16 0.00 0.00
7:59 pm 19:59 Cloudy 70 21.1 63 17.2 79 79 S 9 15 29.73 1007 10 16 0.00 0.00
8:59 pm 20:59 Cloudy with Light Rain 70 21.1 63 17.2 79 79 SSW 10 17 29.75 1008 10 16 0.00 0.00
9:59 pm 21:59 Cloudy 69 20.6 62 16.7 78 78 SSW 9 15 29.74 1007 10 16 0.00 0.00
10:06 pm 22:06 Cloudy 69 20.6 62 16.7 78 78 SSW 13 20 29.74 1007 10 16 0.00 0.00
10:59 pm 22:59 Cloudy 68 20 61 16.1 78 78 SSW 14 22 29.73 1007 10 16 0.00 0.00
11:59 pm 23:59 Cloudy 67 19.4 60 15.6 79 79 SW 14 22 29.75 1007 10 16 0.00 0.00

Powered by AerisWeather